Valladolid Airport, Spain

12:55 AM CET on December 16, 2017 (GMT +0100)
Villanubla

Weather History for LEVD - November, 2011

Change the Weather History Date:

Thursday, November 3, 2011

  Actual Average Record
Temperature  
Mean Temperature 46 °F -  
Max Temperature 51 °F - - ()
Min Temperature 41 °F - - ()
Degree Days  
Heating Degree Days 18    
Moisture  
Dew Point 44 °F    
Average Humidity 89    
Maximum Humidity 94    
Minimum Humidity 82    
Precipitation  
Precipitation 0.00 in - - ()
Sea Level Pressure  
Sea Level Pressure 29.48 in    
Wind  
Wind Speed 12 mph ()    
Max Wind Speed 25 mph    
Max Gust Speed 34 mph    
Visibility 6.0 miles    
Events Rain , Thunderstorm    
T = Trace of Precipitation, MM = Missing Value Source: Averaged Metar Reports

Daily Weather History Graph

Daily Weather History Graph

Search for Another Location

Airport or City:

Trip Planner

Search our weather history database for the weather conditions in past years. The results will help you decide how hot, cold, wet, or windy it might be!

Date:

Astronomy

Nov. 03, 2011 Rise Set
Actual Time 7:53 AM CET 6:11 PM CET
Civil Twilight 7:24 AM CET 6:40 PM CET
Nautical Twilight 6:51 AM CET 7:13 PM CET
Astronomical Twilight 6:19 AM CET 7:46 PM CET
Moon 2:34 PM CET (11/3) 12:45 AM CET (11/3)
Length of Visible Light 11h 16m
Length of Day
10h 18m
First Quarter, 58% of the Moon is Illuminated
Nov 3
First Quarter
Nov 10
Full
Nov 18
Last Quarter
Nov 25
New
Dec 2
First Quarter

Hourly Weather History & Observations

Time (CET) Temp. Windchill Dew Point Humidity Pressure Visibility Wind Dir Wind Speed Gust Speed Precip Events Conditions
6:00 AM 50.0 °F - 48.2 °F 94% 29.47 in 6.2 mi SSW 9.2 mph - N/A   Scattered Clouds
6:30 AM 50.0 °F - 48.2 °F 94% 29.47 in 6.2 mi South 4.6 mph - N/A   Mostly Cloudy
7:00 AM 50.0 °F - 48.2 °F 94% 29.47 in 6.2 mi South 9.2 mph - N/A   Mostly Cloudy
7:30 AM 50.0 °F - 48.2 °F 94% 29.47 in 6.2 mi South 11.5 mph - N/A   Mostly Cloudy
7:37 AM 48.2 °F - 44.6 °F 87% 29.50 in 0.3 mi WSW 25.3 mph - N/A Rain Heavy Rain
8:00 AM 46.4 °F 39.8 °F 44.6 °F 93% 29.50 in 6.2 mi WSW 16.1 mph - N/A Rain Rain
8:30 AM 46.4 °F 41.5 °F 44.6 °F 93% 29.50 in 6.2 mi WSW 10.4 mph - N/A   Scattered Clouds
9:00 AM 46.4 °F 41.5 °F 44.6 °F 93% 29.47 in 6.2 mi SW 10.4 mph - N/A Rain Light Rain
9:30 AM 46.4 °F 41.1 °F 44.6 °F 93% 29.47 in 6.2 mi SSW 11.5 mph - N/A Rain Light Rain
10:00 AM 48.2 °F - 44.6 °F 87% 29.47 in 6.2 mi SSW 15.0 mph - N/A Rain Rain
10:30 AM 48.2 °F - 44.6 °F 87% 29.47 in 6.2 mi SSW 13.8 mph - N/A   Mostly Cloudy
11:00 AM 48.2 °F - 46.4 °F 93% 29.50 in 5.0 mi SW 9.2 mph - N/A Rain Rain
11:30 AM 48.2 °F - 46.4 °F 93% 29.47 in 6.2 mi SSW 9.2 mph - N/A Rain Light Rain
12:00 PM 48.2 °F - 46.4 °F 93% 29.47 in 6.2 mi SSW 12.7 mph - N/A   Mostly Cloudy
12:30 PM 51.8 °F - 48.2 °F 88% 29.47 in 6.2 mi SSW 15.0 mph - N/A Rain Light Rain
1:00 PM 48.2 °F - 44.6 °F 87% 29.47 in 6.2 mi SW 11.5 mph - N/A   Mostly Cloudy
1:30 PM 46.4 °F 38.7 °F 44.6 °F 93% 29.47 in 4.3 mi West 20.7 mph 33.4 mph N/A Rain , Thunderstorm Heavy Thunderstorms and Rain
2:00 PM 46.4 °F 38.7 °F 44.6 °F 93% 29.47 in 6.2 mi WSW 20.7 mph - N/A Rain Light Rain
2:30 PM 48.2 °F - 46.4 °F 93% 29.44 in 6.2 mi SW 16.1 mph - N/A   Scattered Clouds
3:00 PM 50.0 °F - 44.6 °F 82% 29.44 in 6.2 mi SW 20.7 mph - N/A   Scattered Clouds
3:30 PM 50.0 °F - 44.6 °F 82% 29.44 in 6.2 mi SW 19.6 mph - N/A   Mostly Cloudy
4:00 PM 50.0 °F - 44.6 °F 82% 29.44 in 6.2 mi SW 17.3 mph - N/A   Scattered Clouds
4:30 PM 50.0 °F - 44.6 °F 82% 29.44 in 6.2 mi SSW 17.3 mph - N/A   Mostly Cloudy
5:00 PM 50.0 °F - 44.6 °F 82% 29.47 in 6.2 mi SSW 18.4 mph - N/A   Mostly Cloudy
5:30 PM 50.0 °F - 44.6 °F 82% 29.47 in 6.2 mi SSW 17.3 mph - N/A   Mostly Cloudy
5:47 PM 46.4 °F 38.3 °F 42.8 °F 87% 29.47 in 6.2 mi SW 23.0 mph 34.5 mph N/A Rain Heavy Rain
6:00 PM 46.4 °F 39.8 °F 42.8 °F 87% 29.47 in 6.2 mi SW 16.1 mph - N/A   Mostly Cloudy
6:30 PM 46.4 °F 39.8 °F 42.8 °F 87% 29.47 in 6.2 mi SW 16.1 mph - N/A   Mostly Cloudy
7:00 PM 46.4 °F 40.1 °F 42.8 °F 87% 29.50 in 6.2 mi SSW 15.0 mph - N/A   Scattered Clouds
7:30 PM 46.4 °F 40.7 °F 42.8 °F 87% 29.50 in 6.2 mi SSW 12.7 mph - N/A   Scattered Clouds
8:00 PM 46.4 °F 40.1 °F 42.8 °F 87% 29.50 in 6.2 mi SSW 15.0 mph - N/A Rain Light Rain
8:30 PM 46.4 °F 41.1 °F 42.8 °F 87% 29.50 in 6.2 mi SSW 11.5 mph - N/A   Mostly Cloudy
9:00 PM 44.6 °F 37.8 °F 42.8 °F 93% 29.50 in 6.2 mi SW 15.0 mph - N/A   Scattered Clouds
9:30 PM 44.6 °F 38.4 °F 41.0 °F 87% 29.50 in 6.2 mi SSW 12.7 mph - N/A   Scattered Clouds
10:00 PM 44.6 °F 38.8 °F 41.0 °F 87% 29.50 in 6.2 mi South 11.5 mph - N/A   Partly Cloudy
10:30 PM 42.8 °F 36.6 °F 41.0 °F 93% 29.50 in 6.2 mi SSW 11.5 mph - N/A   Partly Cloudy
11:00 PM 41.0 °F 33.9 °F 39.2 °F 93% 29.50 in 6.2 mi SSW 12.7 mph - N/A   Partly Cloudy